OPS 4682 DEB, 1399

Orbit data source: Space-Track

OPS 4682 DEB, 1399 is space debris in LEO originally from a launch on Sat, 03 Apr 1965 UTC launched from the Air Force Western Test Range (AFWTR). Debris objects in space refer to the collection of defunct objects orbiting the Earth. Examples of debris include non-operational satellites, rocket bodies, and fragments generated from explosions, collisions, or faulty payload assembly.

Loading next visibility...
Identifier
1399, 1965-027E
Orbit
LEO
Country
Flag of USUS
Related business
Manufacturer
Unknown
Mission
Spacecraft
Bus & Motor
Unknown
Mass
Unknown
Launch date (UTC)
1965-04-03 (61 years ago)
Launch vehicle
Unknown
Launch site
Air Force Western Test Range (AFWTR)
Object type
Payload
Rocket body
Debris
Shape & HBR
Unknown shape, 0.1 m
Radar Cross Section
Small (<0.1 m²)

Expand to show TLE details & history
Last TLE update: 7 hours ago

TLE from 7 hours ago
0 OPS 4682 DEB
1  1399U 65027E   26119.46566539 -.00000036  00000-0 -14629-3 0  9991
2  1399  90.2726  23.8464 0011411  52.3138 307.9017 12.99907725626773
Epoch: 2026-04-29T11:10Z
TLE epoch observation values (Epoch: 2026-04-29T11:10:33.489Z)
Latitude
-0.00005°
Longitude
-1.21937°
Altitude
1,259.981 km
Speed
7.228 km/s
True Right ascension
01h 35m 23s
True Declination
0° 00' 00"
Sunlit
Object was in daylight at epoch
Visualization orbit readout
Latitude
Unknown
Longitude
Unknown
Altitude
Unknown
Speed
Unknown
Apparent Right ascension
Unknown
Apparent Declination
Unknown
Sunlit
N/A
Visualization observer readout
Local Sidereal Time
01:44:28
Azimuth
Unknown
Elevation
Unknown
Doppler factor
Unknown
Orbital elements
Apogee altitude
1,268.291 km
Perigee altitude
1,250.86 km
Semi-major axis
7,637.712 km
Eccentricity
0.00114
Inclination
90.2726°
RAAN
23.8464°
Arg. of periapsis
52.3138°
True anomaly
307.79843°
Mean anomaly
307.9017°
Eccentric anomaly
307.85007°
Mean motion
3.25161 °/min
Orbital period
110.71 mins
BSTAR
-0.00014629
Loading maneuver chart data...
Computing Atmospheric mass density...
Loading historical data...
Loading historical data...
Loading historical data...
Loading historical data...
Loading historical data...
Loading historical data...
Loading historical data...

Documentation

Showing up to 5 results
|